| time (UTC) | temp F | wind direction | speed MPH | gust MPH | rain 1hr in | rain 24hr in | rain mn in | humidity % | barometer mb |
| 20260503004209 | 73 | 180 | 8.0 | 0.0 | 0.00 | 0.00 | 0.00 | 70 | 1011.0 |
| 20260503004109 | 73 | 180 | 8.0 | 0.0 | 0.00 | 0.00 | 0.00 | 70 | 1011.0 |
| 20260503002209 | 74 | 180 | 8.0 | 0.0 | 0.00 | 0.00 | 0.00 | 70 | 1010.0 |
| 20260503002108 | 74 | 180 | 8.0 | 0.0 | 0.00 | 0.00 | 0.00 | 70 | 1010.0 |
| 20260503000208 | 75 | 180 | 8.0 | 0.0 | 0.00 | 0.00 | 0.00 | 70 | 1010.0 |
| 20260503000108 | 75 | 180 | 8.0 | 0.0 | 0.00 | 0.00 | 0.00 | 70 | 1010.0 |
| 20260502234207 | 76 | 180 | 8.0 | 0.0 | 0.00 | 0.00 | 0.00 | 70 | 1010.0 |
| 20260502234107 | 76 | 180 | 8.0 | 0.0 | 0.00 | 0.00 | 0.00 | 70 | 1010.0 |
| 20260502232207 | 77 | 180 | 8.0 | 0.0 | 0.00 | 0.00 | 0.00 | 70 | 1009.0 |
| 20260502232107 | 77 | 180 | 8.0 | 0.0 | 0.00 | 0.00 | 0.00 | 70 | 1009.0 |
| 20260502230206 | 78 | 180 | 8.0 | 0.0 | 0.00 | 0.00 | 0.00 | 70 | 1009.0 |
| 20260502230106 | 78 | 180 | 8.0 | 0.0 | 0.00 | 0.00 | 0.00 | 70 | 1009.0 |
| 20260502224206 | 79 | 180 | 8.0 | 0.0 | 0.00 | 0.00 | 0.00 | 70 | 1009.0 |
| 20260502224106 | 79 | 180 | 8.0 | 0.0 | 0.00 | 0.00 | 0.00 | 70 | 1009.0 |
| 20260502222205 | 80 | 180 | 8.0 | 0.0 | 0.00 | 0.00 | 0.00 | 70 | 1008.0 |
| 20260502222105 | 80 | 180 | 8.0 | 0.0 | 0.00 | 0.00 | 0.00 | 70 | 1008.0 |
| 20260502220205 | 81 | 180 | 8.0 | 0.0 | 0.00 | 0.00 | 0.00 | 70 | 1007.0 |
| 20260502220104 | 81 | 180 | 8.0 | 0.0 | 0.00 | 0.00 | 0.00 | 70 | 1007.0 |
| 20260502214204 | 82 | 180 | 8.0 | 0.0 | 0.01 | 0.00 | 0.00 | 70 | 1007.0 |
| 20260502214104 | 82 | 180 | 8.0 | 0.0 | 0.01 | 0.00 | 0.00 | 70 | 1007.0 |
| 20260502212203 | 83 | 180 | 8.0 | 0.0 | 0.00 | 0.00 | 0.00 | 70 | 1007.0 |
| 20260502212103 | 83 | 180 | 8.0 | 0.0 | 0.00 | 0.00 | 0.00 | 70 | 1007.0 |
| 20260502210203 | 84 | 210 | 5.0 | 0.0 | 0.02 | 0.00 | 0.00 | 70 | 1008.0 |
| 20260502204202 | 85 | 210 | 5.0 | 0.0 | 0.00 | 0.00 | 0.00 | 70 | 1008.0 |
| 20260502204102 | 85 | 210 | 5.0 | 0.0 | 0.00 | 0.00 | 0.00 | 70 | 1008.0 |
| 20260502202202 | 86 | 210 | 5.0 | 0.0 | 0.01 | 0.00 | 0.00 | 70 | 1008.0 |
| 20260502202101 | 86 | 210 | 5.0 | 0.0 | 0.01 | 0.00 | 0.00 | 70 | 1008.0 |
| 20260502200201 | 87 | 210 | 5.0 | 0.0 | 0.04 | 0.00 | 0.00 | 70 | 1008.0 |
| 20260502200101 | 87 | 210 | 5.0 | 0.0 | 0.04 | 0.00 | 0.00 | 70 | 1008.0 |
| 20260502194200 | 79 | 210 | 5.0 | 0.0 | 0.04 | 0.00 | 0.00 | 84 | 1008.0 |
| 20260502194100 | 79 | 210 | 5.0 | 0.0 | 0.04 | 0.00 | 0.00 | 84 | 1008.0 |
| 20260502192200 | 80 | 210 | 5.0 | 0.0 | 0.00 | 0.00 | 0.00 | 84 | 1009.0 |
| 20260502192100 | 80 | 210 | 5.0 | 0.0 | 0.00 | 0.00 | 0.00 | 84 | 1009.0 |
| 20260502190159 | 81 | 180 | 4.0 | 0.0 | 0.03 | 0.00 | 0.00 | 84 | 1009.0 |
| 20260502190059 | 81 | 180 | 4.0 | 0.0 | 0.03 | 0.00 | 0.00 | 84 | 1009.0 |
| 20260502184159 | 82 | 180 | 4.0 | 0.0 | 0.00 | 0.00 | 0.00 | 84 | 1009.0 |
| 20260502184059 | 82 | 180 | 4.0 | 0.0 | 0.00 | 0.00 | 0.00 | 84 | 1009.0 |
| 20260502182158 | 83 | 180 | 4.0 | 0.0 | 0.01 | 0.00 | 0.00 | 84 | 1010.0 |
| 20260502182058 | 83 | 180 | 4.0 | 0.0 | 0.01 | 0.00 | 0.00 | 84 | 1010.0 |
| 20260502180158 | 81 | 0 | 4.0 | 0.0 | 0.00 | 0.00 | 0.00 | 79 | 1009.0 |
| 20260502170157 | 81 | 140 | 4.0 | 0.0 | 0.00 | 0.00 | 0.00 | 83 | 1010.0 |
| 20260502164156 | 82 | 140 | 4.0 | 0.0 | 0.00 | 0.00 | 0.00 | 83 | 1010.0 |
| 20260502164056 | 82 | 140 | 4.0 | 0.0 | 0.00 | 0.00 | 0.00 | 83 | 1010.0 |
| 20260502162156 | 80 | 140 | 4.0 | 0.0 | 0.00 | 0.00 | 0.00 | 78 | 1010.0 |
| 20260502162055 | 80 | 140 | 4.0 | 0.0 | 0.00 | 0.00 | 0.00 | 78 | 1010.0 |
| 20260502160155 | 81 | 10 | 4.0 | 0.0 | 0.00 | 0.00 | 0.00 | 78 | 1010.0 |
| 20260502152154 | 79 | 217 | 4.0 | 3.0 | 0.00 | 0.00 | 0.00 | 87 | 1010.0 |
| 20260502152054 | 79 | 217 | 4.0 | 3.0 | 0.00 | 0.00 | 0.00 | 87 | 1010.0 |
| 20260502150153 | 78 | 0 | 2.0 | 0.0 | 0.00 | 0.00 | 0.00 | 89 | 1010.0 |
| 20260502130151 | 74 | 30 | 5.0 | 0.0 | 0.00 | 0.00 | 0.00 | 94 | 1009.0 |
| 20260502122150 | 73 | 30 | 5.0 | 0.0 | 0.00 | 0.00 | 0.00 | 94 | 1009.0 |
| 20260502122049 | 73 | 30 | 5.0 | 0.0 | 0.00 | 0.00 | 0.00 | 94 | 1009.0 |
| 20260502120149 | 74 | 0 | 2.0 | 0.0 | 0.00 | 0.00 | 0.00 | 94 | 1009.0 |
| 20260502114149 | 73 | 0 | 2.0 | 0.0 | 0.00 | 0.00 | 0.00 | 94 | 1009.0 |
| 20260502114049 | 73 | 0 | 2.0 | 0.0 | 0.00 | 0.00 | 0.00 | 94 | 1009.0 |
| 20260502112148 | 74 | 0 | 2.0 | 0.0 | 0.00 | 0.00 | 0.00 | 94 | 1008.0 |
| 20260502112048 | 74 | 0 | 2.0 | 0.0 | 0.00 | 0.00 | 0.00 | 94 | 1008.0 |
| 20260502110148 | 72 | 315 | 2.0 | 2.0 | 0.00 | 0.00 | 0.00 | 87 | 1009.0 |
| 20260502110048 | 72 | 315 | 2.0 | 2.0 | 0.00 | 0.00 | 0.00 | 87 | 1009.0 |
| 20260502104147 | 72 | 315 | 2.0 | 2.0 | 0.00 | 0.00 | 0.00 | 87 | 1009.0 |
| 20260502104047 | 72 | 315 | 2.0 | 2.0 | 0.00 | 0.00 | 0.00 | 87 | 1009.0 |
| 20260502102147 | 72 | 282 | 1.0 | 1.0 | 0.00 | 0.00 | 0.00 | 87 | 1008.0 |
| 20260502102047 | 72 | 282 | 1.0 | 1.0 | 0.00 | 0.00 | 0.00 | 87 | 1008.0 |
| 20260502100146 | 72 | 282 | 1.0 | 1.0 | 0.00 | 0.00 | 0.00 | 87 | 1008.0 |
| 20260502090145 | 72 | 252 | 1.0 | 1.0 | 0.00 | 0.00 | 0.00 | 87 | 1008.0 |
| 20260502070142 | 73 | 350 | 3.0 | 3.0 | 0.00 | 0.00 | 0.00 | 88 | 1009.0 |
| 20260502070042 | 73 | 350 | 3.0 | 3.0 | 0.00 | 0.00 | 0.00 | 88 | 1009.0 |
| 20260502064142 | 72 | 350 | 3.0 | 3.0 | 0.00 | 0.00 | 0.00 | 89 | 1009.0 |
| 20260502064042 | 72 | 350 | 3.0 | 3.0 | 0.00 | 0.00 | 0.00 | 89 | 1009.0 |
| 20260502062141 | 72 | 321 | 4.0 | 5.0 | 0.00 | 0.00 | 0.00 | 90 | 1010.0 |
| 20260502062041 | 72 | 321 | 4.0 | 5.0 | 0.00 | 0.00 | 0.00 | 90 | 1010.0 |
| 20260502060141 | 72 | 321 | 4.0 | 5.0 | 0.00 | 0.00 | 0.00 | 90 | 1010.0 |
| 20260502060041 | 72 | 321 | 4.0 | 5.0 | 0.00 | 0.00 | 0.00 | 90 | 1010.0 |
| 20260502054140 | 72 | 321 | 4.0 | 5.0 | 0.00 | 0.00 | 0.00 | 91 | 1010.0 |
| 20260502054040 | 72 | 321 | 4.0 | 5.0 | 0.00 | 0.00 | 0.00 | 91 | 1010.0 |
| 20260502052140 | 72 | 292 | 3.0 | 4.0 | 0.00 | 0.00 | 0.00 | 92 | 1010.0 |
| 20260502052040 | 72 | 292 | 3.0 | 4.0 | 0.00 | 0.00 | 0.00 | 92 | 1010.0 |
| 20260502050139 | 72 | 292 | 3.0 | 4.0 | 0.00 | 0.00 | 0.00 | 92 | 1010.0 |
| 20260502050039 | 72 | 292 | 3.0 | 4.0 | 0.00 | 0.00 | 0.00 | 92 | 1010.0 |
| 20260502044139 | 72 | 320 | 5.0 | 0.0 | 0.00 | 0.00 | 0.00 | 94 | 1010.0 |
| 20260502044039 | 72 | 320 | 5.0 | 0.0 | 0.00 | 0.00 | 0.00 | 94 | 1010.0 |
| 20260502042138 | 73 | 320 | 5.0 | 0.0 | 0.00 | 0.00 | 0.00 | 94 | 1010.0 |
| 20260502042038 | 73 | 320 | 5.0 | 0.0 | 0.00 | 0.00 | 0.00 | 94 | 1010.0 |
| 20260502040138 | 74 | 320 | 5.0 | 0.0 | 0.00 | 0.00 | 0.00 | 94 | 1010.0 |
| 20260502040038 | 74 | 320 | 5.0 | 0.0 | 0.00 | 0.00 | 0.00 | 94 | 1010.0 |
| 20260502034137 | 75 | 320 | 5.0 | 0.0 | 0.00 | 0.00 | 0.00 | 94 | 1010.0 |
| 20260502034037 | 75 | 320 | 5.0 | 0.0 | 0.00 | 0.00 | 0.00 | 94 | 1010.0 |
| 20260502032137 | 76 | 320 | 5.0 | 0.0 | 0.00 | 0.00 | 0.00 | 94 | 1009.0 |
| 20260502032037 | 76 | 320 | 5.0 | 0.0 | 0.00 | 0.00 | 0.00 | 94 | 1009.0 |
| 20260502030136 | 73 | 0 | 2.0 | 0.0 | 0.00 | 0.00 | 0.00 | 94 | 1010.0 |
| 20260502030036 | 73 | 0 | 2.0 | 0.0 | 0.00 | 0.00 | 0.00 | 94 | 1010.0 |
| 20260502024136 | 74 | 0 | 2.0 | 0.0 | 0.00 | 0.00 | 0.00 | 94 | 1010.0 |
| 20260502024036 | 74 | 0 | 2.0 | 0.0 | 0.00 | 0.00 | 0.00 | 94 | 1010.0 |
| 20260502022136 | 75 | 0 | 2.0 | 0.0 | 0.02 | 0.00 | 0.00 | 94 | 1009.0 |
| 20260502022035 | 75 | 0 | 2.0 | 0.0 | 0.02 | 0.00 | 0.00 | 94 | 1009.0 |
| 20260502020135 | 76 | 0 | 2.0 | 0.0 | 0.05 | 0.00 | 0.00 | 94 | 1009.0 |
| 20260502020034 | 76 | 0 | 2.0 | 0.0 | 0.05 | 0.00 | 0.00 | 94 | 1009.0 |
| 20260502014134 | 73 | 0 | 2.0 | 0.0 | 0.08 | 0.00 | 0.00 | 94 | 1009.0 |
| 20260502014035 | 73 | 0 | 2.0 | 0.0 | 0.08 | 0.00 | 0.00 | 94 | 1009.0 |
| 20260502012134 | 74 | 0 | 2.0 | 0.0 | 0.02 | 0.00 | 0.00 | 94 | 1008.0 |
| 20260502012034 | 74 | 0 | 2.0 | 0.0 | 0.02 | 0.00 | 0.00 | 94 | 1008.0 |
| 20260502010133 | 75 | 0 | 1.0 | 0.0 | 0.00 | 0.00 | 0.00 | 94 | 1008.0 |
| 20260502010033 | 75 | 0 | 1.0 | 0.0 | 0.00 | 0.00 | 0.00 | 94 | 1008.0 |